[Iaude] MPEC C171: 2024 CM5 [a=1.87,e=0.52,i=1.8,H=28.2]
    mpec at cfa.harvard.edu 
    mpec at cfa.harvard.edu
       
    Wed Feb 14 17:27:33 EST 2024
    
    
  
M.P.E.C. 2024-C171                            Issued 2024 February 14, 22:25 UT
     The Minor Planet Electronic Circulars contain information on unusual
         minor planets, routine data on comets and natural satellites,
         and occasional editorial announcements.  They are published
    on behalf of Division F of the International Astronomical Union by the
          Minor Planet Center, Smithsonian Astrophysical Observatory,
                          Cambridge, MA 02138, U.S.A.
			  
             Prepared using the Tamkin Foundation Computer Network
                              MPC at CFA.HARVARD.EDU
            URL https://www.minorplanetcenter.net/    ISSN 1523-6714
                                    2024 CM5                                    
Observations:
     K24C05M* C2024 02 12.92341509 35 04.560+07 57 47.56         15.01oVEC171M22
     K24C05M  C2024 02 12.92525509 35 40.747+07 54 14.65         14.98oVEC171M22
     K24C05M  C2024 02 12.92801609 36 34.294+07 48 58.25         15.02oVEC171M22
     K24C05M  C2024 02 12.96315409 46 47.686+06 47 44.09         15.33oVEC171M22
     K24C05M KC2024 02 14.10697511 04 31.78 -01 04 58.4          18.7 GVEC171L01
     K24C05M KC2024 02 14.10796311 04 32.48 -01 05 03.1          18.8 GVEC171L01
     K24C05M KC2024 02 14.10895211 04 33.17 -01 05 07.6          18.8 GVEC171L01
     K24C05M KC2024 02 14.10994111 04 33.87 -01 05 12.0          18.8 GVEC171L01
     K24C05M KC2024 02 14.12721911 04 46.16 -01 06 30.8          18.5 GVEC171L01
     K24C05M KC2024 02 14.12796311 04 46.69 -01 06 34.2          18.6 GVEC171L01
     K24C05M KC2024 02 14.12895311 04 47.40 -01 06 38.6          18.6 GVEC171L01
     K24C05M KC2024 02 14.13068111 04 48.63 -01 06 46.5          18.8 GVEC171L01
     K24C05M KC2024 02 14.30885 11 07 49.09 -01 17 38.1          19.2 GVEC171H36
     K24C05M KC2024 02 14.31363 11 07 51.22 -01 17 55.3          19.3 GVEC171H36
     K24C05M KC2024 02 14.31841 11 07 53.34 -01 18 12.6          19.3 GVEC171H36
     K24C05M KC2024 02 14.45243 11 08 56.86 -01 24 21.5          19.2 GVEC171V21
     K24C05M KC2024 02 14.46398 11 09 01.36 -01 24 56.3          19.3 GVEC171V21
     K24C05M KC2024 02 14.48081 11 09 08.10 -01 25 47.2          19.6 GVEC171V21
     K24C05M KC2024 02 14.49502 11 09 13.94 -01 26 28.8          19.7 GVEC171V21
     K24C05M KC2024 02 14.50923 11 09 19.91 -01 27 09.9          19.8 GVEC171V21
Observer details:
H36 Sandlot Observatory, Scranton.  Observer G. Hug.  .56 meter Reflector +
    CCD.
L01 Visnjan Observatory, Tican.  Observer K. Korlevic.  1.0-m f/2.9 reflector
    + CCD.
M22 ATLAS South Africa, Sutherland.  Observers L. Denneau, R. Siverd, J.
    Tonry, H. Weiland.  Measurers L. Denneau, N. Erasmus, A. Fitzsimmons, A.
    Lawrence, J. Robinson, R. Siverd, J. Tonry, H. Weiland.  0.5-m Reflector +
    CCD.
V21 Cewanee Observatory at DSNM.  Observers D. T. Durig, A. E. Cuevas.  0.40 m
    f/8 Ritchey-Chretien + 4656x3520 CCD.
Orbital elements:
2024 CM5                                                 Earth MOID = 0.0002 AU
Epoch 2023 Sept. 13.0 TT = JDT 2460200.5                Veres                   
M 313.89907              (2000.0)            P               Q                  
n   0.38630130     Peri.  135.06075     -0.13882866     -0.99013341             
a   1.8671760      Node   322.90704     +0.89949803     -0.11803185             
e   0.5246183      Incl.    1.80890     +0.41428239     -0.07552693             
P   2.55           H   28.25          G   0.15           U   7                  
Residuals in seconds of arc
240212 M22  0.1+  0.2-    240214 L01  0.1-  0.2+    240214 H36  0.1-  0.1+
240212 M22  0.1+  0.1+    240214 L01  0.1-  0.0     240214 V21  0.5+  0.1+
240212 M22  0.3-  0.1+    240214 L01  0.1-  0.0     240214 V21  0.0   0.5+
240212 M22  0.0   0.0     240214 L01  0.0   0.1+    240214 V21  0.1+  0.0
240214 L01  0.2+  0.0     240214 L01  0.0   0.1-    240214 V21  0.0   0.1+
240214 L01  0.1+  0.1-    240214 H36  0.1+  0.2-    240214 V21  0.4-  0.1-
240214 L01  0.1-  0.0     240214 H36  0.0   0.0
Ephemeris:
2024 CM5                 a,e,i = 1.87, 0.52, 2                   q = 0.8876
Date    TT    R. A. (2000) Decl.     Delta      r    Elong.  Phase     V
2024 01 15    23 05 17.5 +00 13 15   0.1783  0.8898    53.7   117.0    28.9
...
2024 01 30    23 17 11.1 +01 49 35   0.08359 0.9245    42.0   134.5    28.9
...
2024 02 07    23 22 54.7 +02 28 48   0.03441 0.9584    35.5   143.3    28.1
...
2024 02 13    09 56 20.1 +05 15 55   0.0023170.9895   170.9     9.0    15.7
2024 02 14    11 03 04.4 -00 43 10   0.0082630.9950   156.5    23.4    18.9
2024 02 15    11 13 40.6 -01 40 33   0.01432 1.0005   154.7    24.9    20.2
...
2024 02 21    11 23 31.8 -02 30 16   0.05099 1.0363   158.1    20.8    22.9
...
2024 02 29    11 24 02.7 -02 22 49   0.1013  1.0890   165.7    13.0    24.2
...
2024 03 15    11 22 18.0 -01 40 52   0.2052  1.1988   174.1     4.9    25.6
M. P. C. Staff               (C) Copyright 2024 MPC           M.P.E.C. 2024-C171
    
    
More information about the Iaude
mailing list